Regional Weather Roundup
Issued by NWS New Orleans/Baton Rouge, LA

Home | Current Version | Previous Version | Text Only | Print | Product List | Glossary On
Versions: 1 2 3 4 5 6 7 8 9 10 11 12 13 14 15 16 17 18 19 20 21 22 23 24 25 26 27
000
ASUS44 KLIX 032211
RWRLIX
NEW ORLEANS REGIONAL WEATHER ROUNDUP
NATIONAL WEATHER SERVICE NEW ORLEANS LA
500 PM CDT TUE MAY 03 2016

NOTE: "FAIR" INDICATES FEW OR NO CLOUDS BELOW 12,000 FEET WITH NO
      SIGNIFICANT WEATHER AND/OR OBSTRUCTIONS TO VISIBILITY.
      SKY/WX - SKY CONDITION AND SIGNIFICANT WEATHER.
      TMP - AIR TEMPERATURE.     DP    - DEWPOINT TEMPERATURE.
      RH  - RELATIVE HUMIDITY.   PRES  - PRESSURE.
      HI  - HEAT INDEX.          WCI   - WIND CHILL INDEX.

*  THESE STATIONS ARE NOT NWS OR FAA STATIONS AND ARE NOT UNDER
   NWS QUALITY CONTROL.

LAZ038-040-048-061>063-065>067-069-032300-
SOUTHEAST LOUISIANA

CITY           SKY/WX    TMP DP  RH WIND       PRES   REMARKS
N.O. AUDUBON     N/A     75  66  73 MISG        N/A
N.O. INTL ARPT PTSUNNY   74  65  73 NW13      29.91S
N.O. LAKEFRONT CLOUDY    70  67  90 NW12      29.91S
N.O. DOWNTOWN* CLOUDY    74  65  73 NW8       29.91S
RESERVE*         N/A     76  64  65 N7        29.91F
SLIDELL        PTSUNNY   76  67  73 NW7       29.89F
BATON ROUGE    MOSUNNY   74  58  57 NW7       29.91F
BOOTHVILLE     CLOUDY    75  69  81 NE3       29.89S
BELLE CHASSE   PTSUNNY   75  66  73 NW8       29.90R
BOGALUSA*      MOCLDY    77  62  58 N5        29.92S
GALLIANO*      CLOUDY    77  69  75 N10       29.90S
NEW ROADS*       N/A     73  59  61 N6        29.93F
GONZALES*        N/A     74  63  66 N7        29.91S
HAMMOND*       PTSUNNY   77  59  53 N7        29.91S
HOUMA*         MOSUNNY   77  70  78 N6        29.90S
PORT FOURCHON* CLOUDY    75  70  83 CALM      29.90S

$$

MSZ070-080>082-032300-
SOUTHERN MISSISSIPPI

CITY           SKY/WX    TMP DP  RH WIND       PRES   REMARKS
MCCOMB         MOSUNNY   76  60  57 N13       29.92F
GULFPORT       CLOUDY    74  65  73 N5        29.88R
BILOXI         CLOUDY    73  73 100 CALM      29.88R
PASCAGOULA     PTSUNNY   73  69  87 N6        29.88S
STENNIS ARPT*  PTSUNNY   75  61  60 NW7       29.89S

$$

COASTAL OBSERVATIONS
LAKE AND NEARSHORE STATIONS

STATION/POSITION TIME  TEMP    WIND        PRES    WAVE
                       AIR SEA DIR/SP/G            HT/PER
                 (UTC) (F)     (DEG/KT/KT) (MB)    (FT/S)
PASCAGOULA       2100   75     230/  5/  7 1011.1
WAVELAND YACHT   2100   75 76  320/  9/ 11 1011.8
GRAND ISLE       2100   75 77   30/  2/  3 1012.0
SOUTHWEST PASS   2100          360/ 10/ 11   N/A
NEW CANAL        2100   73 74  350/  8/ 12 1012.0
SHELL BEACH      2100   74 76  320/ 12/ 15 1012.3

OFFSHORE STATIONS

STATION/POSITION TIME  TEMP    WIND        PRES    WAVE
                       AIR SEA DIR/SP/G            HT/PER
                 (UTC) (F)     (DEG/KT/KT) (MB)    (FT/S)
64 S DAUPHIN ISL 2100   76 77   40/  6/  8 1011.8

$$





USA.gov is the U.S. government's official web portal to all federal, state and local government web resources and services.